Location: Ostrava
(49.8330°N, 18.2830°E)
Time: 20:45:35
(UTC+01:00)

Transit 2A - All Passes

Search period start: 26 February 2017 00:00
Search period end: 08 March 2017 00:00
Orbit: 602 x 958 km, 66.7° (Epoch: 26 February)

Date Brightness Start Highest point End Pass type
(mag) Time Alt. Az. Time Alt. Az. Time Alt. Az.
26 Feb - 12:19:59 10° SSW 12:25:00 61° ESE 12:29:35 10° NE daylight
26 Feb - 14:04:17 10° W 14:08:27 27° NW 14:12:23 10° NNE daylight
26 Feb - 15:52:10 10° NNW 15:53:09 11° NNW 15:54:09 10° N daylight
26 Feb - 17:37:49 10° N 17:38:31 10° NNE 17:39:12 10° NNE daylight
26 Feb - 19:19:29 10° NNW 19:23:14 27° NE 19:26:58 10° E visible
26 Feb - 21:02:23 10° NW 21:06:38 53° WSW 21:10:56 10° SSE visible
27 Feb - 11:46:16 10° S 11:51:03 43° ESE 11:55:29 10° NE daylight
27 Feb - 13:29:47 10° WSW 13:34:17 35° NW 13:38:30 10° NNE daylight
27 Feb - 15:16:57 10° NW 15:18:46 12° NNW 15:20:33 10° N daylight
27 Feb - 18:45:39 10° NNW 18:49:01 21° NE 18:52:23 10° E visible
27 Feb - 20:28:19 10° NW 20:32:40 78° WSW 20:37:06 10° SSE visible
27 Feb - 22:14:22 10° W 22:15:01 10° WSW 22:15:40 10° WSW visible
28 Feb - 11:12:44 10° S 11:17:09 30° ESE 11:21:15 10° NE daylight
28 Feb - 12:55:24 10° WSW 13:00:11 47° NW 13:04:36 10° NNE daylight
28 Feb - 14:41:56 10° WNW 14:44:25 14° NNW 14:46:50 10° N daylight
28 Feb - 18:11:50 10° NNW 18:14:46 17° NNE 18:17:40 10° ENE visible
28 Feb - 19:54:18 10° NNW 19:58:40 73° NE 20:03:05 10° SE visible
28 Feb - 21:38:39 10° WNW 21:41:15 16° WSW 21:43:54 10° SW visible
01 Mar - 10:39:29 10° SSE 10:43:17 22° ESE 10:46:52 10° ENE daylight
01 Mar - 12:21:10 10° SW 12:26:07 64° NW 12:30:40 10° NNE daylight
01 Mar - 14:07:02 10° WNW 14:10:05 17° NNW 14:13:03 10° NNE daylight
01 Mar - 17:38:03 10° N 17:40:27 14° NNE 17:42:49 10° ENE daylight
01 Mar - 19:20:21 10° NNW 19:24:37 52° NE 19:28:56 10° SE visible
01 Mar - 21:04:01 10° WNW 21:07:27 23° WSW 21:10:56 10° SSW visible
02 Mar - 10:06:39 10° SE 10:09:29 15° ESE 10:12:11 10° ENE daylight
02 Mar - 11:47:04 10° SW 11:52:05 88° NW 11:56:41 10° NE daylight
02 Mar - 13:32:15 10° W 13:35:50 20° NNW 13:39:14 10° NNE daylight
02 Mar - 17:04:20 10° N 17:06:06 12° NNE 17:07:50 10° NE daylight
02 Mar - 18:46:26 10° NNW 18:50:31 37° NE 18:54:38 10° ESE visible
02 Mar - 20:29:41 10° NW 20:33:36 33° WSW 20:37:35 10° S visible
03 Mar - 09:35:23 10° ESE 09:35:42 10° ESE 09:36:01 10° ESE daylight
03 Mar - 11:13:07 10° SSW 11:18:06 67° ESE 11:22:40 10° NE daylight
03 Mar - 12:57:36 10° W 13:01:36 26° NW 13:05:24 10° NNE daylight
03 Mar - 14:45:50 10° NNW 14:46:21 10° NNW 14:46:52 10° N daylight
03 Mar - 16:30:47 10° N 16:31:42 11° NNE 16:32:37 10° NNE daylight
03 Mar - 18:12:33 10° NNW 18:16:22 28° NE 18:20:12 10° E visible
03 Mar - 19:55:30 10° NW 19:59:42 48° WSW 20:03:59 10° SSE visible
04 Mar - 10:39:21 10° SSW 10:44:08 47° ESE 10:48:34 10° NE daylight
04 Mar - 12:23:03 10° WSW 12:27:25 33° NW 12:31:32 10° NNE daylight
04 Mar - 14:10:24 10° NW 14:11:58 11° NNW 14:13:29 10° N daylight
04 Mar - 17:38:42 10° NNW 17:42:10 22° NE 17:45:38 10° E daylight
04 Mar - 19:21:25 10° NW 19:25:44 71° WSW 19:30:11 10° SSE visible
05 Mar - 10:05:47 10° S 10:10:14 33° ESE 10:14:22 10° NE daylight
05 Mar - 11:48:39 10° WSW 11:53:19 43° NW 11:57:38 10° NNE daylight
05 Mar - 13:35:20 10° NW 13:37:36 13° NNW 13:39:49 10° N daylight
05 Mar - 17:04:53 10° NNW 17:07:55 18° NNE 17:10:57 10° ENE daylight
05 Mar - 18:47:23 10° NW 18:51:46 80° NE 18:56:13 10° SE visible
05 Mar - 20:31:56 10° WNW 20:34:18 14° WSW 20:36:42 10° SW visible
06 Mar - 09:32:28 10° SSE 09:36:22 23° ESE 09:40:02 10° ENE daylight
06 Mar - 11:14:22 10° SW 11:19:13 59° NW 11:23:43 10° NNE daylight
06 Mar - 13:00:24 10° WNW 13:03:16 16° NNW 13:06:03 10° N daylight
06 Mar - 16:31:06 10° N 16:33:37 15° NNE 16:36:07 10° ENE daylight
06 Mar - 18:13:25 10° NNW 18:17:43 56° NE 18:22:05 10° SE visible
06 Mar - 19:57:13 10° WNW 20:00:30 21° WSW 20:03:51 10° SSW visible
07 Mar - 08:59:30 10° SSE 09:02:32 16° ESE 09:05:25 10° ENE daylight
07 Mar - 10:40:14 10° SW 10:45:11 81° NW 10:49:45 10° NE daylight
07 Mar - 12:25:35 10° WNW 12:28:59 19° NNW 12:32:15 10° NNE daylight
07 Mar - 15:57:22 10° N 15:59:16 12° NNE 16:01:11 10° NE daylight
07 Mar - 17:39:29 10° NNW 17:43:38 40° NE 17:47:49 10° ESE daylight
07 Mar - 19:22:50 10° NW 19:26:39 30° WSW 19:30:35 10° S visible
